Homer, AK

9:33 AM AKDT on July 29, 2016 (GMT -0800)
Homer

Weather History for PAHO - August, 2014

Change the Weather History Date:

Sunday, August 10, 2014

  Actual Average Record
Temperature  
Mean Temperature 62 °F -  
Max Temperature 69 °F 61 °F 78 °F (1944)
Min Temperature 55 °F 48 °F 37 °F (1949)
Degree Days  
Heating Degree Days 3    
Growing Degree Days 12 (Base 50)    
Moisture  
Dew Point 51 °F    
Average Humidity 72    
Maximum Humidity 81    
Minimum Humidity 54    
Precipitation  
Precipitation 0.03 in - - ()
Sea Level Pressure  
Sea Level Pressure 29.60 in    
Wind  
Wind Speed 2 mph (East)    
Max Wind Speed 8 mph    
Max Gust Speed -    
Visibility 10 miles    
Events Rain    
Averages and records for this station are not official NWS values.
T = Trace of Precipitation, MM = Missing Value Source: NWS Daily Summary

Daily Weather History Graph

Daily Weather History Graph

Search for Another Location

Airport or City:

Trip Planner

Search our weather history database for the weather conditions in past years. The results will help you decide how hot, cold, wet, or windy it might be!

Date:

Astronomy

Aug. 10, 2014 Rise Set
Actual Time 6:10 AM AKDT 10:10 PM AKDT
Civil Twilight 5:17 AM AKDT 11:02 PM AKDT
Nautical Twilight 3:54 AM AKDT 12:23 AM AKDT
Astronomical Twilight Sun does not set Sun does not set
Moon 9:37 PM AKDT (8/10) 6:31 AM AKDT (8/10)
Length of Visible Light 17h 45m
Length of Day
15h 59m
Full, 100% of the Moon is Illuminated
Aug 10
Full
Aug 17
Last Quarter
Aug 25
New
Sep 2
First Quarter
Sep 8
Full

Hourly Weather History & Observations

Time (AKDT) Temp. Dew Point Humidity Pressure Visibility Wind Dir Wind Speed Gust Speed Precip Events Conditions
12:53 AM 57.0 °F 51.1 °F 81% 29.57 in 10.0 mi Calm Calm - 0.00 in   Overcast
1:53 AM 57.0 °F 51.1 °F 81% 29.58 in 10.0 mi Calm Calm - N/A   Overcast
2:53 AM 57.0 °F 51.1 °F 81% 29.58 in 10.0 mi NE 3.5 mph - N/A   Overcast
3:53 AM 55.9 °F 50.0 °F 80% 29.59 in 10.0 mi NE 3.5 mph - N/A   Overcast
4:53 AM 55.9 °F 48.9 °F 77% 29.59 in 10.0 mi NNE 3.5 mph - N/A   Mostly Cloudy
5:53 AM 55.9 °F 48.0 °F 75% 29.59 in 10.0 mi Calm Calm - N/A   Overcast
6:53 AM 55.9 °F 48.0 °F 75% 29.60 in 9.0 mi East 5.8 mph - 0.00 in Rain Light Rain
7:53 AM 55.9 °F 48.9 °F 77% 29.61 in 10.0 mi Calm Calm - 0.00 in   Overcast
8:53 AM 57.9 °F 48.9 °F 72% 29.61 in 10.0 mi ENE 3.5 mph - N/A   Overcast
9:53 AM 60.1 °F 50.0 °F 69% 29.61 in 10.0 mi East 4.6 mph - N/A   Mostly Cloudy
10:53 AM 64.0 °F 50.0 °F 60% 29.62 in 10.0 mi East 5.8 mph - N/A   Mostly Cloudy
11:53 AM 64.0 °F 50.0 °F 60% 29.62 in 10.0 mi East 8.1 mph - N/A   Mostly Cloudy
12:53 PM 69.1 °F 52.0 °F 54% 29.62 in 10.0 mi Variable 4.6 mph - N/A   Mostly Cloudy
1:53 PM 66.9 °F 51.1 °F 57% 29.62 in 10.0 mi East 6.9 mph - N/A   Overcast
2:53 PM 66.0 °F 51.1 °F 59% 29.62 in 10.0 mi Calm Calm - N/A   Overcast
3:53 PM 66.9 °F 52.0 °F 59% 29.62 in 10.0 mi ESE 4.6 mph - N/A   Overcast
4:53 PM 64.0 °F 53.1 °F 67% 29.61 in 10.0 mi South 3.5 mph - 0.00 in Rain Light Rain
5:53 PM 63.0 °F 55.0 °F 75% 29.61 in 10.0 mi North 3.5 mph - 0.03 in   Mostly Cloudy
6:53 PM 63.0 °F 55.0 °F 75% 29.59 in 10.0 mi SSW 3.5 mph - N/A   Overcast
7:53 PM 64.0 °F 54.0 °F 70% 29.57 in 10.0 mi SW 4.6 mph - N/A   Clear
8:53 PM 61.0 °F 54.0 °F 78% 29.57 in 10.0 mi South 3.5 mph - N/A   Mostly Cloudy
9:53 PM 60.1 °F 53.1 °F 78% 29.57 in 10.0 mi Calm Calm - 0.00 in   Overcast
10:53 PM 60.1 °F 53.1 °F 78% 29.57 in 10.0 mi Calm Calm - N/A   Overcast
11:53 PM 60.1 °F 54.0 °F 80% 29.57 in 10.0 mi Calm Calm - N/A   Mostly Cloudy